Wind_Speed
29 29 29 28 29 30 31 31 31 33 33 34 34 30 29 35 35 34 34 35 37 40 41 42 42 42 44 46 47 48 48 49 51 55 57 60 62 65 68 72 74 70 65 61
34 33 31 32 32 32 34 35 35 36 37 38 35 31 31 31 33 34 35 36 37 40 41 41 41 42 44 46 47 47 48 52 54 58 61 65 67 70 73 67 57 57 61 63
39 35 35 35 35 35 36 36 37 38 38 40 39 36 29 32 32 32 34 35 37 38 40 39 41 43 44 45 45 48 52 56 59 63 66 68 72 73 59 51 54 60 64 69
39 37 38 38 37 38 38 38 39 39 39 40 37 43 30 32 31 31 31 32 34 37 39 40 42 44 45 45 47 51 55 57 60 64 69 75 71 56 49 53 58 62 63 69
37 36 36 36 36 37 37 37 39 39 40 42 37 41 39 32 27 28 29 31 36 39 41 41 44 45 46 46 46 50 55 59 62 68 75 68 59 54 53 60 63 67 67 69
30 31 31 31 32 34 36 37 38 39 41 42 38 38 36 30 26 26 29 34 39 41 42 42 43 44 45 47 48 54 57 60 65 72 67 62 60 59 62 65 69 71 71 74
35 35 34 34 34 34 36 36 38 39 40 39 38 38 29 30 29 31 31 36 43 45 44 44 43 45 45 46 51 55 58 61 70 67 63 63 62 63 67 72 76 78 81 76
40 38 37 37 37 37 36 36 37 41 42 40 40 40 35 36 33 33 37 41 46 46 44 43 44 44 45 48 53 58 59 66 68 64 62 64 61 67 72 76 81 82 81 77
45 45 44 43 42 42 40 40 40 42 43 45 45 43 39 38 38 36 31 41 48 48 41 44 45 45 45 48 54 61 62 69 65 63 62 60 65 70 77 80 84 79 68 66
48 49 49 48 46 44 42 43 43 44 46 49 47 47 44 41 37 35 34 41 47 47 41 43 44 44 45 49 54 60 64 67 64 63 63 63 69 76 79 81 76 61 57 56
51 52 54 52 50 50 48 48 48 48 48 50 52 49 47 44 39 36 32 43 47 43 39 43 43 45 47 51 55 61 65 65 65 62 61 66 73 74 78 76 59 52 52 48
50 54 55 55 56 56 54 52 50 51 53 54 55 53 44 45 42 30 40 45 46 42 41 42 43 45 48 51 56 62 65 65 65 60 64 67 67 73 76 61 48 45 43 41
46 49 51 53 54 55 55 55 55 55 55 56 57 53 47 49 50 45 44 41 44 42 42 42 44 45 47 50 56 63 64 63 60 60 62 62 65 72 67 51 43 44 46 43
48 48 48 49 50 55 53 51 52 54 57 57 59 58 47 50 54 46 41 45 43 43 43 45 46 45 46 49 55 62 62 59 56 57 58 58 63 62 51 44 44 44 45 44
50 51 50 47 47 49 50 52 52 54 51 55 54 56 54 56 58 54 51 48 47 46 48 49 47 45 47 47 51 58 58 55 54 53 51 56 61 55 47 49 51 45 36 30
50 52 51 51 47 46 47 45 47 50 49 52 52 54 49 52 55 54 51 49 48 51 50 50 47 47 45 45 49 54 52 52 49 49 45 53 59 52 45 45 44 35 29 22
51 50 50 52 52 50 49 46 47 45 40 42 47 49 52 52 51 52 50 49 51 52 51 50 47 46 41 43 45 49 46 47 45 44 41 51 53 44 39 40 36 27 15 17
54 51 51 52 51 55 46 42 47 48 45 45 49 49 50 55 54 51 48 46 47 48 50 50 46 42 37 39 40 45 41 44 41 40 38 46 51 39 30 32 28 24 20 16
54 53 53 53 53 56 51 40 43 46 42 41 46 47 49 49 49 52 51 48 47 45 47 47 43 36 35 35 38 41 41 42 37 38 38 41 45 35 23 26 23 28 27 22
55 53 53 52 53 55 50 46 47 49 52 44 47 46 46 48 49 48 48 47 43 42 44 43 36 32 32 32 35 37 38 40 34 35 35 33 38 33 20 20 18 23 29 28
54 52 50 48 51 54 46 45 50 53 47 45 43 44 44 44 46 49 46 43 43 39 39 34 31 31 30 30 32 35 33 35 32 30 31 26 31 31 19 14 15 14 21 25
54 52 54 53 54 57 44 48 49 54 50 45 46 46 45 45 43 46 44 39 35 34 33 35 29 29 26 26 27 31 29 33 32 26 26 21 24 29 23 17 9 12 13 17
60 56 57 59 58 52 48 49 49 55 51 50 51 47 46 45 43 44 42 39 36 32 33 32 26 27 22 23 23 24 25 29 29 22 21 19 20 20 26 23 6 6 8 14
61 60 65 64 60 54 54 55 55 58 54 53 54 53 49 47 49 41 43 41 38 35 29 30 25 25 19 21 19 17 18 24 25 20 15 15 19 21 19 19 20 9 9 14
64 67 67 71 63 60 60 61 60 60 61 61 58 55 51 50 52 46 45 35 41 39 37 30 25 23 19 19 16 14 13 16 17 13 12 13 15 18 20 21 20 17 14 12
67 68 72 72 65 69 68 65 64 66 66 65 63 59 52 52 53 51 44 40 34 40 41 32 27 24 21 18 15 13 10 10 10 12 10 15 16 20 20 22 25 24 24 25
Wind_Direction
265 267 268 268 268 270 270 271 272 273 275 274 275 278 278 281 284 278 274 271 273 276 279 283 286 288 289 290 291 291 292 293 291 290 291 291 290 289 288 290 291 294 293 290
267 267 268 268 268 269 270 272 273 273 275 276 277 279 281 280 279 280 279 278 279 280 284 284 286 288 289 291 292 292 293 293 293 292 291 290 290 290 294 300 293 295 297 294
268 268 267 267 269 271 272 274 273 274 274 276 279 277 279 279 279 279 276 277 278 279 282 287 289 290 292 293 293 292 293 295 297 296 294 293 294 297 300 293 291 295 292 291
265 265 265 265 268 270 271 273 274 276 277 278 278 281 278 278 280 277 274 274 277 281 286 290 291 293 295 294 293 294 297 300 299 297 298 299 304 299 289 294 295 293 290 288
263 262 263 266 268 270 270 271 272 274 276 278 281 283 289 290 282 277 277 280 283 287 290 293 294 295 293 292 294 298 300 302 300 301 305 308 304 294 290 294 294 293 287 292
258 260 260 262 265 268 270 271 273 275 277 278 281 280 283 289 282 279 279 283 284 286 293 293 293 290 291 292 297 300 303 305 305 311 311 309 305 301 296 297 295 294 288 291
260 261 262 263 263 266 269 273 276 276 277 279 280 279 284 284 284 290 289 290 288 291 294 295 291 290 291 298 305 309 310 310 312 314 309 308 304 301 298 299 298 295 292 289
259 258 263 265 267 267 268 270 274 276 278 279 278 280 286 288 293 293 295 292 289 291 295 293 292 294 296 303 308 314 313 314 315 310 309 306 301 300 302 302 298 298 294 285
265 265 265 264 267 269 270 272 272 271 273 277 279 281 281 288 292 297 291 288 288 292 296 296 295 298 301 304 310 316 315 315 314 311 308 304 303 305 306 302 302 297 288 277
261 264 267 268 267 266 268 268 269 272 275 274 274 278 283 287 291 296 295 288 288 291 295 295 299 302 306 309 311 315 316 317 315 312 306 304 306 309 307 306 304 299 287 275
260 258 261 262 263 265 265 266 268 270 270 273 276 277 282 292 295 295 288 288 287 292 294 293 299 304 309 310 312 316 318 317 316 312 308 308 312 311 312 311 304 300 288 283
256 259 260 262 263 264 266 266 267 268 269 270 272 276 282 283 289 284 289 284 287 290 294 296 301 306 310 312 314 316 319 315 314 313 316 316 315 318 318 310 304 302 298 282
263 262 263 263 265 265 266 267 267 268 268 268 271 272 280 283 286 291 280 281 281 284 289 297 302 305 311 314 314 318 318 315 315 316 320 318 323 327 320 309 300 299 296 283
269 268 269 269 272 269 267 268 269 270 270 271 270 272 270 276 278 278 280 285 283 287 290 295 301 305 311 315 317 320 317 316 317 319 322 323 332 328 321 313 307 308 295 284
271 271 271 270 271 272 273 272 273 271 275 275 271 275 273 275 277 275 275 278 282 284 291 296 301 307 311 315 320 319 318 319 319 323 323 335 337 326 319 314 312 305 293 293
271 272 273 272 270 270 271 275 279 276 278 282 281 275 281 275 277 277 277 274 279 285 288 292 299 306 310 315 321 317 319 321 322 326 330 341 342 332 333 332 329 318 300 288
270 271 272 272 272 270 268 272 272 276 280 283 284 285 283 280 283 283 280 276 275 278 284 290 297 303 309 314 319 317 321 325 323 329 337 345 345 344 349 350 351 356 349 315
267 270 271 273 273 270 275 274 275 277 275 277 277 278 281 280 280 283 285 285 282 282 283 288 294 300 307 312 316 319 322 325 327 334 338 342 353 349 358 357 358 3 358 342
265 267 270 271 273 276 274 280 278 280 277 282 281 279 279 285 286 283 285 287 284 283 284 287 292 298 303 306 312 319 321 325 327 337 338 344 353 356 358 7 11 14 1 348
262 263 265 269 271 273 275 278 282 281 279 282 283 282 283 280 281 281 279 281 281 280 282 286 291 294 297 301 309 318 324 327 328 339 343 350 359 358 6 21 27 22 21 30
259 258 262 265 269 271 276 281 278 279 289 284 286 286 283 281 279 278 272 275 278 280 280 282 284 285 292 298 306 314 325 336 335 339 346 357 4 9 9 24 30 35 35 49
256 258 260 263 269 273 275 272 274 281 286 288 285 283 278 276 280 281 278 273 268 272 272 274 273 278 288 294 301 309 323 329 337 339 348 358 9 19 18 29 43 40 54 55
256 261 266 265 267 271 273 272 274 281 286 284 281 279 277 274 273 277 276 274 264 261 260 262 263 271 283 287 293 306 322 333 338 333 344 3 7 19 26 35 68 52 34 36
258 260 263 266 266 270 273 272 275 279 282 280 277 276 274 270 269 269 271 271 266 257 254 257 252 261 273 274 282 301 317 334 335 333 348 6 21 31 33 32 44 44 360 28
260 262 265 266 269 271 271 273 275 276 276 276 275 275 272 268 265 269 266 273 266 261 255 266 243 248 258 258 270 286 311 330 331 343 7 14 27 43 57 59 54 48 36 32
265 269 270 271 271 268 270 271 274 275 274 271 271 271 270 266 263 265 266 264 262 264 266 258 236 240 242 245 255 273 299 313 330 3 34 39 53 55 57 64 72 70 70 70
Height
5756 5756 5756 5755 5755 5754 5754 5753 5752 5751 5751 5751 5750 5753 5753 5750 5749 5749 5748 5747 5746 5744 5742 5740 5739 5736 5733 5730 5727 5723 5719 5715 5711 5706 5701 5696 5691 5686 5680 5674 5669 5665 5661 5657
5750 5748 5749 5748 5748 5747 5747 5746 5746 5745 5744 5742 5743 5746 5744 5744 5743 5741 5740 5739 5737 5735 5733 5732 5730 5727 5723 5720 5716 5712 5707 5702 5698 5692 5686 5681 5674 5667 5660 5655 5650 5647 5642 5641
5741 5742 5741 5740 5740 5740 5739 5739 5738 5736 5736 5734 5734 5736 5739 5735 5734 5734 5732 5730 5728 5726 5724 5723 5720 5717 5713 5709 5705 5701 5695 5689 5682 5676 5670 5662 5655 5649 5643 5638 5635 5631 5626 5624
5731 5732 5732 5732 5732 5732 5732 5731 5729 5728 5728 5727 5729 5722 5732 5728 5727 5725 5724 5721 5719 5716 5715 5713 5710 5706 5702 5699 5694 5688 5682 5675 5668 5660 5652 5643 5636 5630 5625 5621 5619 5616 5612 5606
5723 5722 5723 5723 5724 5723 5724 5723 5722 5720 5719 5717 5721 5717 5716 5718 5718 5717 5715 5713 5710 5707 5705 5703 5699 5696 5692 5688 5683 5677 5669 5661 5652 5643 5633 5625 5619 5614 5609 5605 5600 5596 5591 5586
5713 5714 5715 5715 5715 5715 5714 5714 5713 5711 5709 5708 5710 5710 5710 5709 5708 5708 5707 5704 5701 5698 5696 5693 5689 5685 5680 5675 5669 5661 5653 5646 5636 5625 5616 5609 5602 5597 5593 5586 5580 5574 5568 5562
5704 5705 5706 5706 5706 5706 5705 5704 5702 5702 5700 5701 5700 5699 5705 5702 5701 5699 5697 5694 5689 5687 5685 5681 5677 5673 5667 5660 5652 5645 5638 5630 5620 5612 5604 5596 5588 5581 5573 5564 5555 5546 5538 5533
5695 5697 5697 5698 5698 5698 5697 5696 5695 5690 5691 5692 5692 5691 5694 5692 5692 5689 5688 5683 5678 5676 5674 5669 5664 5659 5654 5648 5640 5633 5624 5615 5607 5599 5591 5582 5573 5565 5556 5545 5531 5520 5508 5499
5684 5686 5687 5688 5688 5689 5689 5688 5686 5682 5681 5678 5680 5683 5686 5682 5681 5679 5676 5672 5666 5663 5662 5657 5652 5647 5642 5636 5629 5622 5613 5604 5594 5585 5577 5567 5557 5545 5534 5520 5507 5492 5480 5472
5672 5674 5675 5677 5677 5677 5676 5676 5676 5675 5671 5668 5669 5668 5670 5672 5670 5668 5665 5660 5655 5653 5652 5647 5642 5637 5630 5624 5617 5609 5601 5591 5581 5572 5562 5553 5540 5526 5512 5497 5480 5466 5458 5453
5659 5660 5662 5664 5665 5665 5665 5664 5663 5663 5663 5659 5657 5662 5660 5660 5658 5656 5653 5647 5643 5643 5641 5636 5632 5626 5619 5613 5606 5598 5589 5579 5568 5559 5548 5536 5523 5508 5492 5473 5458 5446 5440 5435
5645 5645 5648 5649 5649 5651 5652 5652 5652 5650 5651 5648 5646 5653 5656 5648 5648 5645 5640 5636 5633 5631 5628 5624 5620 5615 5609 5603 5595 5587 5577 5568 5557 5546 5534 5521 5506 5490 5470 5454 5443 5434 5427 5421
5632 5633 5634 5636 5637 5636 5638 5639 5638 5638 5637 5638 5633 5642 5645 5637 5633 5634 5627 5627 5624 5621 5618 5614 5609 5604 5599 5593 5586 5578 5567 5557 5545 5534 5523 5508 5491 5472 5453 5441 5431 5422 5415 5408
5619 5622 5623 5625 5623 5621 5624 5624 5624 5623 5623 5623 5623 5624 5639 5628 5618 5621 5618 5614 5611 5610 5608 5604 5600 5594 5589 5582 5575 5568 5558 5547 5535 5525 5513 5497 5478 5459 5441 5430 5419 5408 5399 5393
5606 5609 5610 5613 5611 5609 5609 5612 5612 5610 5613 5604 5616 5609 5618 5609 5604 5605 5605 5605 5604 5600 5597 5593 5590 5585 5580 5574 5566 5560 5550 5538 5528 5518 5504 5488 5469 5449 5433 5420 5406 5393 5385 5380
5594 5594 5595 5598 5598 5598 5598 5605 5600 5601 5599 5594 5596 5596 5594 5594 5590 5591 5592 5592 5592 5590 5586 5584 5582 5576 5571 5566 5558 5553 5543 5531 5521 5510 5497 5481 5463 5442 5428 5412 5395 5381 5374 5373
5581 5582 5582 5583 5583 5583 5586 5597 5589 5589 5589 5586 5582 5583 5578 5582 5579 5576 5578 5578 5578 5577 5575 5573 5571 5567 5564 5558 5551 5546 5536 5526 5516 5504 5489 5477 5458 5438 5424 5411 5397 5384 5376 5372
5569 5569 5568 5568 5568 5567 5581 5583 5578 5575 5578 5575 5571 5571 5568 5567 5566 5567 5567 5566 5566 5566 5565 5564 5562 5559 5555 5550 5544 5539 5529 5521 5510 5499 5485 5472 5455 5437 5424 5414 5403 5391 5382 5376
5556 5555 5553 5553 5554 5555 5566 5573 5567 5561 5566 5565 5558 5558 5556 5554 5554 5554 5555 5555 5555 5555 5555 5555 5553 5550 5547 5544 5539 5533 5524 5516 5505 5494 5483 5470 5455 5437 5426 5416 5408 5397 5387 5377
5543 5542 5540 5543 5541 5539 5559 5557 5555 5550 5547 5555 5547 5547 5547 5546 5545 5543 5543 5543 5543 5543 5544 5545 5544 5542 5539 5536 5533 5527 5519 5510 5501 5491 5481 5469 5456 5440 5429 5420 5413 5405 5394 5383
5528 5528 5527 5531 5524 5530 5547 5547 5540 5535 5543 5537 5537 5535 5535 5535 5533 5530 5530 5531 5531 5533 5534 5535 5535 5534 5532 5530 5527 5521 5514 5507 5498 5489 5480 5469 5457 5444 5433 5426 5419 5411 5403 5394
5512 5513 5515 5516 5514 5516 5536 5531 5531 5521 5523 5527 5525 5522 5521 5522 5522 5519 5518 5519 5519 5522 5525 5525 5525 5525 5524 5523 5521 5516 5510 5503 5496 5488 5480 5470 5459 5449 5437 5428 5422 5417 5410 5405
5493 5503 5501 5501 5504 5514 5517 5516 5514 5508 5511 5512 5510 5511 5508 5509 5512 5510 5508 5509 5510 5511 5515 5514 5516 5516 5516 5516 5515 5511 5505 5499 5493 5488 5479 5471 5461 5453 5444 5433 5426 5422 5417 5413
5483 5487 5480 5484 5493 5501 5499 5499 5499 5497 5498 5497 5495 5496 5497 5497 5496 5500 5498 5499 5501 5501 5504 5505 5507 5508 5508 5509 5508 5505 5501 5497 5492 5487 5479 5473 5464 5456 5449 5442 5433 5429 5421 5420
5470 5466 5468 5464 5477 5483 5482 5482 5483 5482 5480 5481 5482 5482 5485 5484 5485 5486 5488 5490 5491 5492 5494 5496 5497 5499 5501 5503 5502 5501 5497 5494 5492 5487 5479 5474 5467 5461 5455 5448 5441 5435 5430 5427
5454 5452 5446 5447 5460 5455 5459 5465 5468 5465 5465 5464 5466 5469 5472 5471 5473 5473 5477 5480 5480 5482 5485 5487 5488 5492 5493 5495 5495 5495 5493 5491 5491 5486 5481 5476 5471 5466 5461 5455 5449 5444 5439 5434